Point Lay, AK

5:26 PM AKST on December 04, 2016 (GMT -0900)
Point Lay

Weather History for PPIZ - March, 2014

Change the Weather History Date:

Sunday, March 9, 2014

  Actual Average Record
Temperature  
Mean Temperature -22 °F -  
Max Temperature -16 °F -2 °F 23 °F (2013)
Min Temperature -27 °F -12 °F -38 °F (1999)
Degree Days  
Heating Degree Days 86    
Moisture  
Dew Point -29 °F    
Average Humidity 73    
Maximum Humidity 84    
Minimum Humidity 69    
Precipitation  
Precipitation 0.00 in - - ()
Sea Level Pressure  
Sea Level Pressure 30.01 in    
Wind  
Wind Speed 1 mph (SSE)    
Max Wind Speed 6 mph    
Max Gust Speed -    
Averages and records for this station are not official NWS values.
T = Trace of Precipitation, MM = Missing Value Source: NWS Daily Summary

Daily Weather History Graph

Daily Weather History Graph

Search for Another Location

Airport or City:

Trip Planner

Search our weather history database for the weather conditions in past years. The results will help you decide how hot, cold, wet, or windy it might be!

Date:

Astronomy

Mar. 09, 2014 Rise Set
Actual Time 9:39 AM AKDT 8:26 PM AKDT
Civil Twilight 8:40 AM AKDT 9:26 PM AKDT
Nautical Twilight 7:29 AM AKDT 10:38 PM AKDT
Astronomical Twilight 6:08 AM AKDT 12:00 AM AKDT
Moon 11:29 AM AKDT (3/9) 8:16 AM AKDT (3/9)
Length of Visible Light 12h 46m
Length of Day
10h 46m
Waxing Gibbous, 62% of the Moon is Illuminated
Mar 9
Waxing Gibbous
Mar 16
Full
Mar 23
Last Quarter
Mar 30
New
Apr 7
First Quarter

Hourly Weather History & Observations

Time (AKDT) Temp. Windchill Dew Point Humidity Pressure Visibility Wind Dir Wind Speed Gust Speed Precip Events Conditions
12:56 AM -17.9 °F -28.2 °F -22.9 °F 78% 30.10 in - North 3.5 mph - N/A   Clear
1:56 AM -20.9 °F - -26.9 °F 74% 30.10 in - Calm Calm - N/A   Clear
3:56 AM -22.0 °F - -27.4 °F 76% 30.07 in - Calm Calm - N/A   Mostly Cloudy
4:49 AM -20.2 °F - -27.4 °F 69% 30.06 in - Calm Calm - N/A   Clear
4:56 AM -20.9 °F - -26.9 °F 74% 30.07 in - Calm Calm - N/A   Clear
5:56 AM -20.9 °F - -26.9 °F 74% 30.06 in - Calm Calm - N/A   Clear
6:56 AM -23.8 °F - -29.2 °F 76% 30.05 in - Calm Calm - N/A   Clear
7:56 AM -22.9 °F - -28.8 °F 74% 30.06 in - Calm Calm - N/A   Clear
8:56 AM -26.0 °F - -31.9 °F 73% 30.06 in - Calm Calm - N/A   Mostly Cloudy
9:56 AM -24.9 °F - -31.9 °F 70% 30.05 in - Calm Calm - N/A   Mostly Cloudy
10:14 AM -25.6 °F - -32.8 °F 69% 30.03 in - Calm Calm - N/A   Clear
10:27 AM -25.6 °F - -32.8 °F 69% 30.03 in - Calm Calm - N/A   Mostly Cloudy
10:56 AM -27.9 °F - -33.9 °F 73% 30.04 in - Calm Calm - N/A   Mostly Cloudy
11:18 AM -27.4 °F - -34.6 °F 69% 30.03 in - Calm Calm - N/A   Clear
11:30 AM -27.4 °F - -32.8 °F 75% 30.03 in - Calm Calm - N/A   Mostly Cloudy
11:41 AM -25.6 °F - -32.8 °F 69% 30.03 in - Calm Calm - N/A   Mostly Cloudy
11:49 AM -25.6 °F - -31.0 °F 76% 30.03 in - Calm Calm - N/A   Mostly Cloudy
11:56 AM -24.9 °F - -31.0 °F 73% 30.04 in - Calm Calm - N/A   Mostly Cloudy
12:22 PM -23.8 °F - -29.2 °F 76% 30.03 in - Calm Calm - N/A   Mostly Cloudy
12:56 PM -20.2 °F - -27.4 °F 69% 30.03 in - Calm Calm - N/A Snow Light Snow
1:56 PM -18.9 °F - -24.9 °F 74% 30.04 in - Calm Calm - 0.00 in Snow Light Snow
2:03 PM -18.4 °F - -25.6 °F 70% 30.02 in - Calm Calm - 0.00 in Snow Light Snow
2:38 PM -16.6 °F - -23.8 °F 70% 30.02 in - Calm Calm - 0.00 in Snow Light Snow
2:49 PM -16.6 °F - -23.8 °F 70% 30.01 in - Calm Calm - 0.00 in Snow Light Snow
2:56 PM -17.9 °F - -22.9 °F 78% 30.03 in - Calm Calm - 0.00 in Snow Light Snow
3:09 PM -16.6 °F - -23.8 °F 70% 30.01 in - Calm Calm - 0.00 in   Overcast
3:17 PM -16.6 °F -26.8 °F -23.8 °F 70% 30.01 in - South 3.5 mph - 0.00 in   Overcast
3:56 PM -16.6 °F -29.3 °F -20.2 °F 84% 30.01 in - South 4.6 mph - N/A Snow Light Snow
4:49 PM -16.6 °F -29.3 °F -23.8 °F 70% 30.00 in - South 4.6 mph - 0.00 in   Overcast
4:56 PM -17.0 °F -29.7 °F -22.9 °F 74% 30.02 in - South 4.6 mph - 0.00 in   Overcast
5:56 PM -18.9 °F -32.0 °F -24.9 °F 74% 30.00 in - South 4.6 mph - 0.00 in   Mostly Cloudy
6:14 PM -20.2 °F -33.5 °F -25.6 °F 76% 29.99 in - SSE 4.6 mph - N/A   Mostly Cloudy
6:25 PM -20.2 °F -35.5 °F -27.4 °F 69% 29.98 in - SSE 5.8 mph - N/A   Clear
6:56 PM -22.0 °F -35.6 °F -27.4 °F 76% 29.98 in - South 4.6 mph - N/A   Clear
7:56 PM -22.0 °F - -27.9 °F 74% 29.99 in - Calm Calm - 0.00 in   Clear
8:24 PM -23.8 °F -35.0 °F -29.2 °F 76% 29.97 in - SSE 3.5 mph - 0.00 in Snow Light Snow
8:31 PM -23.8 °F -35.0 °F -29.2 °F 76% 29.98 in - SSE 3.5 mph - 0.00 in Snow Light Snow
8:56 PM -24.9 °F -38.9 °F -31.0 °F 73% 29.99 in - SSE 4.6 mph - 0.00 in Snow Light Snow
8:59 PM -25.6 °F -39.8 °F -31.0 °F 76% 29.97 in - SSE 4.6 mph - 0.00 in Snow Light Snow
9:06 PM -25.6 °F -39.8 °F -32.8 °F 69% 29.97 in - SE 4.6 mph - 0.00 in Snow Light Snow
9:20 PM -25.6 °F -41.9 °F -32.8 °F 69% 29.97 in - SE 5.8 mph - 0.00 in   Clear
9:56 PM -27.4 °F -41.9 °F -34.6 °F 69% 29.96 in - South 4.6 mph - N/A   Mostly Cloudy
10:09 PM -27.4 °F -39.2 °F -32.8 °F 75% 29.96 in - SSE 3.5 mph - N/A   Mostly Cloudy
10:20 PM -27.4 °F -39.2 °F -34.6 °F 69% 29.97 in - SSE 3.5 mph - N/A   Mostly Cloudy
10:42 PM -27.4 °F - -34.6 °F 69% 29.97 in - Calm Calm - N/A   Clear
10:56 PM -26.0 °F - -33.0 °F 69% 29.98 in - Calm Calm - N/A   Mostly Cloudy
11:06 PM -27.4 °F - -32.8 °F 75% 29.96 in - Calm Calm - N/A   Clear
11:13 PM -25.6 °F - -32.8 °F 69% 29.96 in - Calm Calm - N/A   Mostly Cloudy
11:23 PM -25.6 °F - -32.8 °F 69% 29.96 in - Calm Calm - N/A   Clear
11:56 PM -26.0 °F - -31.9 °F 73% 29.98 in - Calm Calm - N/A   Clear
12:56 AM -27.4 °F - -34.6 °F 69% 29.96 in - Calm Calm - N/A   Clear